Notices

What's New in latest Release from April 7th, 2021:

- Updated Glossary, including Speed of Maximum Gust, and Total Hourly Precipitation

- Updated national and regional climate services offices contacts and prices information

- Addition of station inventory lists for 1981-2010, 1971-2000, and 1961-1990 Normals.

If you haven't already, please take our survey and provide feedback about our website: https://eccc.sondage-survey.ca/f/LanguageSelection.aspx?s=442ca660-fcf1-47c0-95a9-59707d6fd709

Hourly Data Report for August 11, 2003

TORONTO CITY
ONTARIO

43°40'00.000" N
79°24'00.000" W
112.50 m
6158355
71508
XTO

Download Data

Hourly Data (August 2003)
Hourly Data Report for August 11, 2003
TIME
LST
Temp Definition
°C
Dew Point Definition
°C
Rel Hum Definition
%
Precip. Amount Definition
mm

Wind Dir Definition
10's deg

Wind Spd Definition
km/h
Visibility Definition
km
Stn Press Definition
kPa
Hmdx Definition


Wind Chill Definition


Weather Definition


00:00 21.5 17.7 79   LegendMM LegendMM LegendMM 100.01 27   LegendNANA
01:00 21.4 17.9 80   LegendMM LegendMM LegendMM 100.01 27   LegendNANA
02:00 21.1 18.0 82   LegendMM LegendMM LegendMM 99.98 27   LegendNANA
03:00 20.9 18.1 84   LegendMM LegendMM LegendMM 99.99 27   LegendNANA
04:00 21.0 17.9 82   LegendMM LegendMM LegendMM 99.98 27   LegendNANA
05:00 21.2 18.0 82   LegendMM LegendMM LegendMM 100.01 27   LegendNANA
06:00 21.2 18.1 82   LegendMM LegendMM LegendMM 100.04 27   LegendNANA
07:00 22.1 18.5 80   LegendMM LegendMM LegendMM 100.07 28   LegendNANA
08:00 22.9 19.5 81   LegendMM LegendMM LegendMM 100.10 30   LegendNANA
09:00 24.4 20.3 78   LegendMM LegendMM LegendMM 100.11 32   LegendNANA
10:00 24.4 20.1 77   LegendMM LegendMM LegendMM 100.14 32   LegendNANA
11:00 25.4 20.5 74   LegendMM LegendMM LegendMM 100.15 33   LegendNANA
12:00 24.8 20.8 78   LegendMM LegendMM LegendMM 100.15 33   LegendNANA
13:00 24.3 20.6 80   LegendMM LegendMM LegendMM 100.15 32   LegendNANA
14:00 25.3 20.8 76   LegendMM LegendMM LegendMM 100.11 34   LegendNANA
15:00 25.7 21.0 75   LegendMM LegendMM LegendMM 100.11 34   LegendNANA
16:00 25.3 20.9 77   LegendMM LegendMM LegendMM 100.13 34   LegendNANA
17:00 24.9 20.7 78   LegendMM LegendMM LegendMM 100.13 33   LegendNANA
18:00 22.7 18.4 77   LegendMM LegendMM LegendMM 100.21 29   LegendNANA
19:00 22.1 18.9 82   LegendMM LegendMM LegendMM 100.23 29   LegendNANA
20:00 21.5 19.2 87   LegendMM LegendMM LegendMM 100.29 28   LegendNANA
21:00 21.2 19.1 88   LegendMM LegendMM LegendMM 100.35 28   LegendNANA
22:00 21.2 19.0 87   LegendMM LegendMM LegendMM 100.36 28   LegendNANA
23:00 21.5 19.4 88   LegendMM LegendMM LegendMM 100.39 29   LegendNANA

Notes on Data Quality.

Legend

  • E = Estimated
  • M = Missing
  • NA = Not Available*
  • [empty] = Indicates an unobserved value
Date modified: